sat.trackr.live / text

‹ back to catalog

STARLINK-35123

NORAD 65634 · 2025-210N

PAYLOAD ACTIVE UNKNOWN

§ Identity

Operator
Country
US
Launch date
2025-09-18
Launch site
AFETR
Launch vehicle
Mass (kg)
RCS (m²)

Purposes: comms

External: N2YO · Heavens-Above · Gunter

§ Orbital elements

Epoch: 2026-05-24T21:04:14.516256Z

Period
94.10 min
Inclination
53.1597°
Eccentricity
0.0001014
Mean motion
15.30205901 rev/d
Perigee alt
474.5 km
Apogee alt
475.9 km
Semi-major
6,853.3 km
B*
9.8778e-4
RAAN
313.3450°
Arg perigee
79.0156°
Mean anomaly
281.0959°
Rev number
3,939

§ Raw data

STARLINK-351231 65634U 25210N   26144.87794579  .00029016  00000+0  98778-3 0  99962 65634  53.1597 313.3450 0001014  79.0156 281.0959 15.30205901 39393

JSON: /api/v1/satellites/65634 · /tle

For live sub-satellite position, see the globe view (requires WebGL).

§ Visibility from observer

Set your observer location to see the next 7 days of passes ≥ 10°. The values pass through the URL so the page stays shareable.

No JS? Fill the form by hand. The geolocation button needs JavaScript.